Temperature
16 16 15 15 15 15 15 15 15 15 15 14 14 14 14 14 14 14 14 13 13 13 13 13 13 13 13 13 12 12 12 12 12 12 11 11 11 11 11 11 10 10 10
15 15 15 15 15 15 15 14 14 14 14 14 14 14 14 14 14 14 13 13 13 13 13 13 13 13 13 13 12 12 12 12 11 11 11 11 11 10 10 10 10 10 10
15 15 15 15 15 14 14 14 14 14 14 14 14 14 13 13 13 13 13 13 13 13 13 13 13 12 12 12 12 12 12 11 11 11 11 11 10 10 10 10 10 10 10
14 14 14 14 14 14 14 14 14 14 13 13 13 13 13 13 13 13 13 13 13 13 13 12 12 12 12 12 12 12 11 11 11 11 10 10 10 10 10 10 10 10 9
14 14 14 14 14 14 13 13 13 13 13 13 13 13 13 12 12 12 13 12 12 12 12 12 12 12 12 12 12 11 11 11 11 10 10 10 10 10 9 9 9 9 9
14 14 13 13 13 13 13 13 13 13 13 12 12 12 12 12 12 12 12 12 12 12 12 12 12 12 12 11 11 11 11 11 11 10 10 10 10 10 9 9 9 9 9
13 13 13 13 13 13 13 12 12 12 12 12 12 12 12 12 12 12 12 12 12 12 11 11 11 11 11 11 11 11 11 10 10 10 10 10 10 9 9 9 9 9 9
13 13 13 13 12 12 12 12 12 12 12 12 11 11 11 11 11 11 11 11 11 11 11 11 11 11 11 11 11 11 10 10 10 10 10 10 10 9 9 9 9 8 8
12 12 12 12 12 12 12 12 11 11 11 11 11 11 11 11 11 11 11 11 11 11 11 11 10 11 11 10 10 10 10 10 10 10 10 9 9 9 9 9 8 8 8
12 12 12 12 12 11 11 11 11 11 11 10 10 10 10 11 10 10 10 10 10 10 10 10 10 10 10 10 10 10 10 10 10 10 9 9 9 9 9 8 8 8 8
11 11 11 11 11 11 11 11 11 10 10 10 10 10 10 10 10 10 10 9 9 9 9 10 10 10 10 10 10 9 9 9 9 9 9 9 9 8 8 8 8 8 8
11 11 11 11 11 10 10 10 10 10 10 10 9 9 9 9 9 9 9 9 9 9 9 9 9 9 9 9 9 9 9 9 9 9 9 9 9 8 8 8 8 7 7
10 10 10 10 10 10 10 10 9 9 9 9 9 9 9 9 9 9 9 9 8 8 8 8 9 9 9 9 9 8 8 8 8 8 8 8 8 8 8 8 7 7 7
9 9 9 9 9 9 9 9 9 9 8 8 8 8 8 8 8 8 8 8 8 8 8 8 8 8 8 8 8 8 8 8 8 8 8 8 8 7 7 7 7 7 7
9 8 8 9 8 8 8 8 8 8 8 8 8 8 8 8 8 8 8 8 8 8 8 8 8 8 8 8 8 8 7 7 7 7 7 7 7 7 7 7 6 6 6
8 8 8 8 8 8 8 8 7 7 7 7 7 7 7 7 7 7 7 7 7 7 7 7 7 7 7 7 7 7 7 7 7 7 7 7 6 6 6 6 6 6 6
7 7 7 7 7 7 7 7 7 7 7 7 7 7 7 7 7 7 7 7 7 7 7 7 7 7 7 7 7 7 7 6 6 6 6 6 6 6 5 5 5 5 5
6 6 6 6 6 6 6 6 7 7 6 6 7 6 6 7 7 7 7 7 7 7 6 6 6 6 6 6 6 6 6 6 6 6 6 5 5 5 5 5 5 5 5
5 5 5 5 6 6 6 6 6 6 6 6 6 6 6 6 6 6 6 6 6 6 6 6 6 6 6 6 6 6 6 6 5 5 5 5 5 5 5 5 5 5 4
5 4 5 5 5 5 5 5 5 5 5 5 5 5 6 6 6 6 6 6 6 6 6 6 6 6 5 5 5 5 5 5 5 5 5 4 4 4 4 4 4 4 4
4 4 4 4 4 4 5 5 5 5 5 5 5 5 5 5 5 5 5 5 5 5 5 5 5 5 5 5 5 4 4 4 4 4 4 4 4 4 4 4 4 4 3
3 4 3 3 3 4 4 4 4 4 4 4 4 4 4 4 5 5 5 5 5 5 5 5 5 5 5 4 4 4 4 4 4 4 4 4 4 4 3 3 3 3 3
3 3 3 3 3 3 3 3 3 3 3 3 3 3 4 4 4 4 4 4 4 4 4 4 4 4 4 4 4 4 4 4 4 4 4 4 3 3 3 3 3 3 3
2 2 2 2 2 2 2 2 2 2 2 2 3 3 3 3 3 3 4 4 4 4 4 4 4 4 4 3 3 3 3 3 3 3 3 3 3 3 3 2 2 2 2
2 2 1 2 2 2 2 2 2 2 2 2 2 2 2 2 3 3 3 3 3 3 3 3 3 3 3 3 3 3 3 3 3 3 3 3 2 2 2 2 2 2 2
1 1 1 1 1 1 1 1 1 1 1 1 1 2 2 2 2 2 2 2 3 3 3 2 2 2 2 3 3 2 2 2 2 2 2 2 2 2 2 2 2 2 2
Wind_Speed
4 3 3 3 3 3 3 3 3 3 3 4 4 4 4 4 4 4 3 3 3 2 2 3 2 2 2 2 2 2 2 3 2 3 2 1 1 1 1 1 2 2 2
4 4 3 3 3 3 2 2 2 2 2 3 3 3 3 3 3 4 4 3 3 3 3 3 2 2 2 2 2 2 2 2 3 2 2 1 2 2 1 1 1 2 3
4 4 3 3 3 3 3 2 2 2 1 2 2 3 3 2 2 3 3 3 3 3 3 3 3 3 2 2 2 2 2 1 2 2 2 1 1 1 0 1 2 2 3
4 4 4 4 4 4 3 3 2 2 1 0 2 2 2 2 2 2 3 2 2 2 3 4 4 4 4 3 3 3 2 2 1 2 1 1 0 1 1 0 2 2 3
4 4 4 3 3 3 3 2 2 2 1 1 1 1 1 2 2 2 3 3 3 2 2 3 3 4 4 4 3 3 3 2 2 2 1 1 1 0 1 1 1 2 2
3 3 3 3 3 3 3 2 2 1 1 1 1 1 1 2 2 2 3 3 3 3 3 2 2 2 3 3 4 5 5 5 4 3 2 2 3 3 2 1 1 0 2
3 3 3 4 4 3 2 2 2 2 1 1 1 2 2 3 2 2 3 3 3 3 3 2 2 1 1 2 2 2 4 5 6 5 5 5 4 4 3 2 2 2 3
3 3 3 4 4 3 3 3 2 2 2 2 2 3 3 3 2 2 2 2 2 2 3 3 3 2 2 3 2 1 2 3 4 4 5 5 4 4 4 4 3 2 1
3 3 3 4 4 4 4 3 3 2 2 3 3 3 3 3 3 3 3 2 1 1 2 2 3 3 3 3 3 2 1 2 2 3 3 3 3 4 4 2 2 1 1
4 4 3 3 4 5 5 4 2 2 3 3 2 2 3 3 3 3 4 2 2 1 1 2 2 2 3 3 4 4 3 3 1 1 1 1 1 2 4 4 4 2 1
2 2 2 2 3 4 4 3 2 2 2 2 2 2 2 2 2 3 4 3 3 2 2 2 2 2 2 2 3 4 5 3 2 2 2 1 1 1 2 3 3 3 3
0 1 1 1 2 2 2 2 2 3 3 3 2 2 2 2 2 2 3 3 3 3 3 2 2 3 2 2 2 2 2 2 2 2 1 2 2 2 3 3 3 3 3
0 0 1 1 1 2 3 3 2 2 3 3 3 3 3 2 2 2 3 3 3 3 3 3 2 2 2 2 3 2 1 1 2 2 2 3 3 3 2 1 1 1 1
1 1 1 1 1 1 2 3 3 3 3 3 3 4 3 3 3 3 2 2 3 2 1 2 2 2 1 2 2 2 2 2 3 3 3 3 1 1 2 2 2 2 1
1 1 1 1 1 2 3 3 4 5 5 5 5 5 4 4 5 5 4 3 3 3 1 1 0 0 1 1 1 1 1 1 2 2 2 2 2 2 2 2 2 2 2
2 2 1 1 2 1 2 2 3 3 4 5 5 5 5 6 5 5 5 4 4 4 3 2 2 3 3 3 3 2 2 2 3 2 2 2 2 3 3 2 2 3 4
1 2 2 2 2 1 1 2 3 3 3 4 5 5 5 4 4 4 4 4 4 4 3 3 3 4 4 3 3 3 4 3 3 3 3 3 3 3 2 3 3 3 4
2 2 2 2 2 2 2 2 2 2 2 3 4 4 4 4 3 3 3 2 2 3 3 4 4 4 4 4 4 4 3 3 3 3 3 3 3 3 3 3 3 4 4
2 2 2 2 2 2 2 2 2 2 2 2 2 3 3 2 1 1 2 2 3 3 3 4 4 4 4 4 4 4 4 4 4 4 4 4 4 4 4 4 4 5 4
2 4 4 2 2 2 2 1 2 2 2 2 2 2 1 0 0 1 2 2 3 3 3 4 4 4 4 4 3 3 3 4 4 4 4 4 4 4 5 5 4 4 5
3 3 5 3 2 2 1 1 1 1 2 2 2 2 1 2 2 3 3 3 3 3 3 4 3 3 3 3 3 3 4 4 4 4 4 4 4 4 4 4 5 5 4
2 2 2 2 2 2 2 2 1 2 2 2 2 2 2 2 2 3 3 3 3 3 3 3 3 3 3 3 3 3 4 4 4 4 4 4 4 4 4 4 4 4 4
2 2 2 2 2 3 3 2 2 2 2 2 2 2 2 2 2 3 3 3 3 3 3 3 3 3 3 3 3 3 4 5 5 4 4 4 4 4 4 5 5 5 5
2 2 2 2 2 2 2 2 2 2 2 2 2 2 2 2 3 3 3 3 3 3 3 3 3 4 4 3 3 4 4 4 4 5 5 4 4 4 4 4 5 5 5
1 2 2 2 2 3 3 3 3 3 2 2 2 2 2 2 3 3 3 3 3 3 3 3 3 3 4 4 4 3 5 5 5 4 4 4 5 5 4 5 5 4 5
2 2 2 2 2 2 2 3 3 3 2 3 2 2 3 3 3 4 3 3 3 3 3 3 4 4 4 5 5 5 5 5 5 5 3 3 4 4 4 4 5 5 4
Wind_Direction
171 159 156 164 164 160 169 188 196 200 193 185 193 193 194 199 190 176 181 174 172 189 188 171 185 169 152 162 159 158 161 153 196 264 270 279 245 255 256 239 249 267 272
175 159 161 164 156 152 162 184 181 180 181 174 176 183 189 185 181 176 188 184 180 196 205 179 192 175 161 170 166 178 185 175 171 223 265 275 250 242 231 252 270 287 268
168 162 163 165 156 161 167 155 144 148 151 168 173 180 185 181 173 178 184 183 193 203 202 190 192 166 182 189 176 182 198 194 173 178 222 241 277 327 346 313 317 318 292
164 165 168 177 174 171 168 156 147 149 144 192 204 195 188 180 178 178 178 173 189 205 206 195 189 184 195 194 183 188 182 165 156 153 178 198 272 328 72 342 332 320 309
167 169 180 183 172 155 151 158 146 138 156 200 235 208 194 185 190 181 188 181 177 189 203 201 201 200 198 191 185 184 169 166 161 161 167 160 223 270 231 221 249 297 309
169 183 181 170 160 155 155 149 136 138 175 178 216 222 216 226 222 193 185 185 183 187 194 209 214 193 204 201 190 176 172 174 183 178 191 202 224 218 209 210 182 109 289
171 190 189 175 172 179 165 143 160 180 175 186 223 210 223 247 236 195 175 176 178 192 196 193 214 227 202 198 210 187 192 191 183 182 192 211 208 205 187 197 206 200 229
179 191 200 182 179 182 170 174 197 195 192 204 216 219 221 235 224 203 165 160 175 197 203 197 193 204 206 168 166 167 207 223 216 204 200 212 212 200 192 197 208 213 267
189 201 213 197 185 180 188 198 201 195 208 215 215 217 223 240 222 195 167 166 169 206 212 204 193 203 213 170 160 175 219 270 255 215 208 202 198 188 162 133 126 130 271
217 216 218 199 191 195 202 203 201 198 212 215 225 226 225 230 222 195 168 162 168 213 235 234 222 218 209 186 179 182 207 235 220 210 230 232 182 178 175 174 174 176 200
232 214 220 206 204 204 199 196 192 196 202 209 222 240 238 233 218 196 173 171 180 198 226 241 244 230 215 197 192 201 218 208 195 192 197 218 233 220 209 196 190 184 194
155 154 228 236 225 203 186 205 200 192 197 207 213 242 255 256 231 213 197 189 179 190 219 232 238 230 214 206 207 232 220 152 144 164 186 215 222 231 232 214 209 215 218
72 187 232 251 257 211 189 198 205 202 206 214 212 229 251 255 245 237 218 211 194 192 214 224 232 232 235 234 233 224 191 159 159 184 219 234 231 225 205 200 218 240 297
15 280 252 234 252 234 208 201 205 212 219 224 220 228 240 244 236 224 221 220 207 206 220 229 234 239 239 245 251 242 217 201 197 214 230 242 233 203 209 205 215 220 252
355 325 303 270 245 240 227 221 220 222 219 221 224 221 225 236 232 217 209 216 209 202 170 141 152 211 253 261 265 253 232 218 220 224 222 236 230 222 227 217 208 207 221
346 335 321 310 283 269 264 280 265 249 255 242 232 230 237 237 234 224 224 220 204 175 155 185 212 220 225 226 228 239 234 235 229 215 214 223 222 219 226 222 210 210 227
336 324 323 320 307 283 265 257 286 304 286 261 254 250 253 255 242 227 227 219 202 172 183 210 221 224 229 230 226 221 228 232 222 215 221 227 228 227 221 221 220 224 235
317 313 315 300 290 276 266 256 249 260 288 289 281 267 256 249 235 222 217 181 205 196 211 220 227 229 230 232 232 232 230 225 223 226 228 230 227 227 226 226 227 231 239
313 303 301 293 283 272 272 274 265 257 268 286 313 309 290 270 234 206 171 188 212 227 230 232 232 233 235 234 235 233 230 228 228 226 229 232 229 224 232 232 231 243 243
311 312 318 307 302 301 292 272 266 271 282 286 283 281 282 111 178 219 208 215 226 238 242 243 244 243 242 239 239 238 239 239 234 234 233 233 231 226 229 231 232 236 238
311 310 317 314 301 298 294 270 263 267 274 279 279 277 251 212 227 235 237 236 236 241 246 248 250 249 247 244 241 239 238 244 243 241 240 238 231 232 233 230 233 235 238
304 302 309 305 305 304 306 298 286 277 283 288 299 306 296 252 243 249 247 251 251 246 245 242 246 244 240 239 240 242 244 246 245 243 242 241 236 235 235 233 233 234 235
310 305 307 312 308 306 308 305 297 287 287 288 289 297 296 277 270 265 264 265 258 255 256 250 247 252 265 255 247 240 240 244 244 241 238 238 234 232 235 239 239 239 239
310 297 295 299 302 298 292 293 293 293 291 292 289 286 289 290 287 284 280 278 272 268 265 256 252 252 256 255 248 247 249 252 250 239 231 231 232 232 232 238 243 244 239
324 307 297 293 300 298 295 292 292 293 293 293 293 292 291 288 285 285 283 280 273 267 267 267 268 260 255 256 259 262 263 261 262 254 234 227 231 230 230 235 242 247 246
346 334 317 305 297 296 296 295 293 295 295 295 292 288 286 284 281 281 284 279 273 271 270 268 262 255 256 255 256 260 264 263 261 260 240 224 230 233 232 236 241 242 244
Height
1511 1512 1513 1514 1515 1517 1517 1518 1518 1519 1519 1520 1520 1521 1521 1522 1523 1523 1524 1525 1525 1525 1525 1525 1525 1526 1526 1526 1526 1526 1526 1526 1524 1524 1524 1523 1523 1522 1521 1521 1520 1519 1518
1509 1511 1512 1512 1513 1514 1515 1515 1516 1516 1516 1516 1517 1517 1518 1519 1520 1520 1521 1522 1522 1522 1523 1523 1523 1523 1523 1523 1523 1523 1523 1523 1523 1521 1521 1521 1521 1520 1520 1519 1518 1518 1517
1507 1508 1509 1510 1511 1511 1512 1512 1513 1513 1513 1513 1513 1514 1515 1516 1517 1517 1518 1519 1519 1519 1520 1520 1520 1520 1520 1520 1520 1520 1521 1521 1520 1520 1519 1519 1518 1518 1517 1517 1516 1516 1515
1505 1506 1507 1508 1508 1509 1510 1510 1510 1510 1510 1510 1511 1511 1512 1513 1514 1514 1515 1515 1516 1516 1517 1517 1518 1518 1518 1518 1518 1518 1518 1518 1518 1517 1517 1516 1516 1516 1515 1514 1514 1514 1513
1503 1503 1504 1505 1506 1507 1507 1507 1507 1507 1507 1508 1508 1508 1509 1509 1510 1511 1512 1512 1513 1513 1514 1514 1515 1515 1515 1515 1515 1515 1515 1515 1515 1514 1514 1514 1514 1513 1513 1512 1512 1511 1511
1500 1501 1502 1503 1503 1504 1504 1504 1504 1504 1505 1505 1505 1506 1505 1506 1507 1508 1509 1509 1509 1510 1510 1511 1511 1512 1512 1512 1512 1512 1513 1512 1512 1512 1511 1511 1511 1511 1511 1510 1510 1509 1508
1497 1498 1499 1500 1500 1500 1501 1501 1501 1501 1502 1502 1502 1503 1503 1503 1504 1505 1505 1506 1506 1506 1507 1507 1508 1508 1508 1509 1509 1509 1509 1509 1510 1510 1509 1508 1508 1508 1508 1507 1507 1506 1506
1495 1495 1496 1497 1497 1497 1498 1497 1497 1498 1498 1498 1499 1499 1500 1500 1501 1501 1502 1502 1503 1503 1504 1504 1504 1505 1505 1505 1505 1505 1505 1506 1506 1506 1506 1505 1506 1506 1505 1505 1504 1504 1504
1492 1492 1493 1493 1494 1494 1494 1494 1495 1495 1495 1495 1495 1495 1496 1496 1497 1498 1498 1498 1499 1499 1500 1501 1501 1501 1501 1502 1502 1501 1501 1502 1502 1503 1503 1502 1502 1502 1502 1502 1501 1501 1500
1488 1489 1489 1490 1490 1491 1491 1491 1491 1491 1491 1491 1492 1492 1493 1493 1494 1494 1495 1495 1495 1495 1496 1497 1497 1497 1498 1498 1498 1498 1497 1498 1498 1498 1499 1499 1499 1499 1499 1498 1498 1498 1497
1485 1486 1486 1486 1486 1487 1487 1488 1488 1488 1488 1488 1488 1488 1489 1490 1490 1491 1491 1491 1491 1492 1492 1492 1493 1494 1494 1494 1495 1495 1494 1495 1495 1495 1495 1495 1495 1495 1495 1495 1495 1495 1495
1483 1482 1482 1482 1483 1483 1484 1484 1484 1484 1484 1484 1485 1485 1485 1486 1487 1487 1488 1488 1488 1489 1488 1489 1489 1490 1490 1491 1491 1491 1491 1491 1491 1491 1491 1491 1491 1491 1492 1492 1492 1492 1492
1480 1479 1479 1479 1479 1479 1479 1480 1480 1480 1480 1480 1481 1481 1481 1482 1482 1483 1484 1484 1485 1485 1485 1486 1486 1486 1487 1487 1487 1488 1488 1487 1487 1487 1487 1487 1488 1488 1488 1488 1488 1488 1488
1476 1476 1476 1475 1475 1475 1475 1476 1476 1476 1476 1476 1476 1477 1477 1477 1478 1479 1479 1480 1480 1481 1481 1482 1482 1483 1483 1483 1483 1483 1483 1483 1483 1483 1484 1484 1484 1484 1484 1484 1484 1484 1484
1473 1472 1472 1472 1472 1472 1472 1472 1472 1472 1473 1473 1473 1473 1473 1473 1473 1474 1475 1475 1476 1476 1477 1477 1478 1478 1478 1478 1479 1479 1479 1479 1479 1479 1480 1480 1480 1480 1480 1480 1480 1480 1479
1470 1469 1469 1469 1469 1469 1469 1469 1469 1469 1469 1469 1469 1470 1469 1470 1470 1470 1471 1472 1472 1473 1473 1473 1473 1474 1474 1474 1474 1474 1475 1475 1475 1475 1475 1475 1475 1475 1475 1475 1476 1475 1475
1467 1466 1466 1465 1465 1465 1465 1465 1465 1465 1465 1465 1465 1465 1466 1466 1466 1467 1467 1467 1468 1469 1469 1468 1469 1469 1470 1470 1470 1470 1470 1471 1471 1471 1470 1470 1471 1471 1471 1471 1471 1471 1471
1464 1464 1463 1462 1462 1462 1462 1462 1461 1461 1460 1460 1461 1461 1461 1462 1463 1463 1463 1463 1463 1464 1464 1464 1465 1465 1465 1466 1466 1466 1466 1466 1466 1466 1466 1465 1465 1466 1466 1466 1466 1467 1466
1461 1461 1460 1459 1459 1459 1459 1458 1458 1458 1457 1457 1457 1457 1458 1458 1459 1459 1459 1459 1459 1459 1460 1460 1460 1461 1461 1461 1461 1461 1461 1461 1461 1461 1461 1461 1461 1461 1460 1461 1461 1462 1462
1459 1458 1457 1456 1456 1455 1455 1455 1454 1454 1454 1454 1454 1454 1454 1454 1454 1454 1454 1454 1455 1455 1455 1455 1455 1456 1456 1456 1456 1456 1456 1456 1456 1456 1456 1456 1456 1456 1456 1456 1456 1456 1456
1456 1455 1454 1454 1453 1452 1451 1451 1451 1451 1451 1450 1450 1450 1450 1450 1449 1450 1450 1450 1450 1450 1451 1451 1451 1451 1451 1450 1451 1451 1451 1451 1451 1451 1451 1451 1451 1451 1451 1451 1451 1451 1451
1453 1452 1451 1450 1450 1449 1448 1448 1447 1447 1446 1446 1446 1446 1445 1445 1445 1445 1445 1445 1446 1446 1446 1446 1446 1446 1445 1445 1445 1445 1445 1445 1445 1445 1445 1445 1445 1445 1446 1445 1445 1445 1445
1450 1449 1448 1447 1447 1446 1445 1445 1444 1443 1443 1442 1442 1441 1441 1441 1440 1441 1440 1440 1441 1441 1441 1441 1440 1440 1440 1440 1440 1440 1440 1439 1440 1440 1440 1440 1440 1440 1440 1440 1439 1440 1440
1447 1446 1445 1444 1444 1443 1442 1441 1441 1440 1439 1439 1438 1438 1437 1437 1437 1436 1436 1436 1435 1435 1435 1435 1435 1435 1435 1435 1435 1434 1434 1434 1434 1434 1434 1434 1434 1434 1434 1434 1434 1434 1434
1444 1443 1442 1442 1441 1440 1439 1438 1438 1437 1436 1436 1435 1434 1434 1433 1433 1432 1431 1431 1430 1430 1430 1430 1430 1430 1430 1429 1429 1429 1429 1429 1429 1428 1428 1428 1428 1428 1428 1428 1429 1429 1428
1441 1440 1440 1439 1438 1437 1437 1436 1435 1434 1433 1432 1432 1431 1431 1429 1428 1428 1427 1426 1425 1424 1424 1424 1424 1424 1424 1424 1424 1424 1423 1423 1423 1423 1423 1423 1422 1422 1422 1423 1423 1423 1423